Norfolk, NE

9:02 AM CST on February 19, 2017 (GMT -0600)
Stefan Memorial

Weather History for KOFK - August, 2013

Change the Weather History Date:

Wednesday, August 28, 2013

  Actual Average Record
Temperature  
Mean Temperature 79 °F 71 °F  
Max Temperature 92 °F 83 °F 100 °F (1984)
Min Temperature 65 °F 59 °F 38 °F (1917)
Degree Days  
Heating Degree Days 0 1  
Month to date heating degree days 3 5  
Since 1 June heating degree days 58 39  
Since 1 July heating degree days 16 9  
Cooling Degree Days 14 7  
Month to date cooling degree days 244 238  
Year to date cooling degree days 782 799  
Since 1 June cooling degree days 718 738  
Growing Degree Days 28 (Base 50)    
Moisture  
Dew Point 66 °F    
Average Humidity 68    
Maximum Humidity 87    
Minimum Humidity 49    
Precipitation  
Precipitation 0.00 in 0.10 in 1.34 in (1960)
Month to date precipitation 3.58 2.97  
Year to date precipitation 18.41 20.25  
Snow  
Snow 0.00 in 0.00 in - ()
Month to date snowfall 0.0 0.0  
Since 1 July snowfall 0.0 0.0  
Snow Depth 0.00 in    
Sea Level Pressure  
Sea Level Pressure 29.93 in    
Wind  
Wind Speed 6 mph (South)    
Max Wind Speed 13 mph    
Max Gust Speed 16 mph    
Visibility 10 miles    
Events      
T = Trace of Precipitation, MM = Missing Value Source: NWS Daily Summary

Daily Weather History Graph

Daily Weather History Graph

Search for Another Location

Airport or City:

Trip Planner

Search our weather history database for the weather conditions in past years. The results will help you decide how hot, cold, wet, or windy it might be!

Date:

Astronomy

Aug. 28, 2013 Rise Set
Actual Time 6:51 AM CDT 8:09 PM CDT
Civil Twilight 6:22 AM CDT 8:38 PM CDT
Nautical Twilight 5:47 AM CDT 9:12 PM CDT
Astronomical Twilight 5:10 AM CDT 9:49 PM CDT
Moon No Moon Rise 2:51 PM CDT (8/28)
Length of Visible Light 14h 15m
Length of Day
13h 17m
Waning Gibbous, 47% of the Moon is Illuminated
Aug 28
Waning Gibbous
Sep 5
New
Sep 12
First Quarter
Sep 19
Full
Sep 26
Last Quarter

Hourly Weather History & Observations

Time (CDT) Temp. Heat Index Dew Point Humidity Pressure Visibility Wind Dir Wind Speed Gust Speed Precip Events Conditions
12:56 AM 75.9 °F - 64.0 °F 67% 29.88 in 10.0 mi SSW 11.5 mph - N/A   Clear
1:56 AM 73.9 °F - 63.0 °F 68% 29.90 in 10.0 mi Variable 3.5 mph - N/A   Clear
2:56 AM 72.0 °F - 63.0 °F 73% 29.90 in 10.0 mi South 9.2 mph - N/A   Clear
3:56 AM 71.1 °F - 62.1 °F 73% 29.90 in 10.0 mi South 4.6 mph - N/A   Clear
4:56 AM 69.1 °F - 62.1 °F 78% 29.90 in 10.0 mi SSE 4.6 mph - N/A   Clear
5:56 AM 66.9 °F - 62.1 °F 84% 29.91 in 10.0 mi SSE 3.5 mph - N/A   Clear
6:56 AM 66.9 °F - 61.0 °F 81% 29.92 in 10.0 mi South 4.6 mph - N/A   Clear
7:56 AM 70.0 °F - 62.1 °F 76% 29.93 in 10.0 mi South 4.6 mph - N/A   Clear
8:56 AM 75.0 °F - 63.0 °F 66% 29.94 in 10.0 mi SSW 6.9 mph - N/A   Clear
9:56 AM 79.0 °F - 64.0 °F 60% 29.95 in 10.0 mi SSW 9.2 mph - N/A   Clear
10:56 AM 82.0 °F 84.5 °F 66.9 °F 60% 29.96 in 10.0 mi SSW 3.5 mph - N/A   Clear
11:56 AM 84.9 °F 88.2 °F 68.0 °F 57% 29.96 in 10.0 mi Calm Calm - N/A   Clear
12:56 PM 87.1 °F 92.0 °F 70.0 °F 57% 29.96 in 10.0 mi South 6.9 mph - N/A   Clear
1:56 PM 90.0 °F 94.5 °F 69.1 °F 50% 29.95 in 10.0 mi SSW 8.1 mph - N/A   Clear
2:56 PM 91.9 °F 97.4 °F 70.0 °F 48% 29.94 in 10.0 mi South 11.5 mph - N/A   Clear
3:56 PM 91.9 °F 97.4 °F 70.0 °F 48% 29.94 in 10.0 mi South 10.4 mph - N/A   Clear
4:56 PM 91.0 °F 96.6 °F 70.0 °F 50% 29.94 in 10.0 mi South 6.9 mph - N/A   Clear
5:56 PM 89.1 °F 94.1 °F 70.0 °F 53% 29.94 in 10.0 mi South 8.1 mph - N/A   Clear
6:56 PM 87.1 °F 93.6 °F 72.0 °F 61% 29.94 in 10.0 mi SSE 3.5 mph - N/A   Clear
7:56 PM 82.9 °F 86.5 °F 69.1 °F 63% 29.95 in 10.0 mi South 6.9 mph - N/A   Clear
8:56 PM 79.0 °F - 68.0 °F 69% 29.95 in 10.0 mi South 8.1 mph - N/A   Clear
9:56 PM 80.1 °F 82.3 °F 66.9 °F 64% 29.96 in 10.0 mi South 8.1 mph - N/A   Clear
10:56 PM 78.1 °F - 66.0 °F 66% 29.96 in 10.0 mi South 6.9 mph - N/A   Clear
11:56 PM 75.9 °F - 64.9 °F 69% 29.97 in 10.0 mi South 6.9 mph - N/A   Clear